Flag for U.S.A. Weather past 2 weeks in Grand Junction, Colorado, U.S.A.

Now
85 °F

Sunny.


Feels Like: 83 °F
Forecast: 67 / 95 °F
Wind: 5 mph from Southwest

Location: Walker Field

Current Time: Jul 26, 2014 at 12:19:19 PM

Latest Report: Jul 26, 2014 at 11:53 AM


Visibility: 10 mi

Pressure: 29.95 "Hg

Humidity: 28%

Dew point: 48 °F

Location of Grand JunctionLocation

Historic Weather in Grand Junction — Graph

°F

Grand Junction temperature yesterday

Maximum temperature yesterday: 86 °F (at 11:53 AM)
Minimum temperature yesterday: 68 °F (at 6:02 AM)
Average temperature yesterday: 75 °F

Past Weeks' High & Low Weather Summary

 TemperatureHumidityPressure
High98 °F (Jul 23, 3:53 PM)68% (Jul 26, 3:53 AM)30.12 "Hg (Jul 26, 3:53 AM)
Low62 °F (Jul 18, 5:53 AM)7% (Jul 21, 5:53 PM)29.64 "Hg (Jul 16, 6:53 PM)
Average80 °F29%29.87 "Hg
* Reported Jul 11 10:53 AM — Jul 26 10:53 AM, Grand Junction, Weather by CustomWeather, © 2014

Note: Actual official high and low records may vary slightly from our data, if they occured in-between our weather recording intervals... More about our weather records

Advertising

Grand Junction weather history for July 12, 2014

 ConditionsComfort  
Time TempWeatherWind HumidityBarometerVisibility
12:53 AM
Jul 12
76 °FClear.12 mph42%29.86 "Hg10 mi
1:53 AM74 °FClear.9 mph46%29.88 "Hg10 mi
2:53 AM75 °FPassing clouds.12 mph43%29.89 "Hg10 mi
3:53 AM71 °FClear.8 mph51%29.89 "Hg10 mi
4:53 AM70 °FClear.No wind51%29.90 "Hg10 mi
5:53 AM66 °FClear.No wind63%29.96 "Hg10 mi
6:53 AM70 °FClear.No wind53%29.95 "Hg10 mi
7:53 AM75 °FSunny.7 mph47%29.96 "Hg10 mi
8:53 AM78 °FSunny.12 mph39%29.98 "Hg10 mi
9:53 AM80 °FSunny.7 mph36%29.98 "Hg10 mi
10:53 AM82 °FSunny.5 mph33%29.98 "Hg10 mi
11:53 AM87 °FSunny.3 mph28%29.95 "Hg10 mi
12:53 PM89 °FSunny.8 mph26%29.93 "Hg10 mi
1:53 PM93 °FSunny.9 mph23%29.90 "Hg10 mi
2:53 PM94 °FSunny.13 mph19%29.88 "Hg10 mi
3:53 PM95 °FSunny.12 mph20%29.86 "Hg10 mi
4:53 PM93 °FPassing clouds.20 mph21%29.86 "Hg10 mi
5:53 PM94 °FSunny.6 mph19%29.84 "Hg10 mi
6:53 PM92 °FPassing clouds.14 mph22%29.84 "Hg10 mi
7:53 PM90 °FSunny.8 mph23%29.83 "Hg10 mi
8:53 PM88 °FPassing clouds.12 mph23%29.84 "Hg10 mi
9:53 PM87 °FPassing clouds.12 mph25%29.87 "Hg10 mi
10:53 PM85 °FClear.9 mph28%29.88 "Hg10 mi
11:53 PM81 °FPassing clouds.No wind35%29.90 "Hg10 mi
Weather by CustomWeather, © 2014

See weather overviewHow to use our weather pages